#timestamp,LO_Frequency,Hit,StdDev 
1586271615.8,286046998.5,N
1586271635.6,286047000.5,N
1586271655.5,286046999.1,N
1586271675.3,286046997.5,N
1586271695.1,286046999.5,N
1586271715.9,286046996.9,N
1586271735.7,286046996.6,N
1586271755.6,286046999.0,N
1586271775.4,286046999.6,N
1586271795.2,286046997.0,N
1586271815.1,286046999.0,N
1586271816.0,286046999.0,N
1586271835.8,286046996.5,N
1586271855.7,286046997.1,N
1586271875.5,286046996.6,N
1586271895.3,286046997.0,N
1586271915.2,286046995.3,N
1586271935.0,286046995.9,N
1586271935.9,286046995.9,N
1586271955.8,286046995.7,N
1586271975.6,286046995.2,N
1586271995.4,286046995.1,N
1586272015.3,286046993.4,N
1586272035.1,286046992.0,N
1586272055.8,286046991.8,N
1586272075.7,286046992.0,N
1586272095.5,286046992.0,N
1586272115.4,286046992.9,N
1586272135.2,286046992.2,Y
1586272155.0,286046995.0,P
1586272155.9,286046995.0,P
1586272175.8,286046997.9,N
1586272195.6,286046996.1,Y
1586272215.5,286046998.5,P
1586272235.3,286046998.4,N
1586272255.1,286046999.5,N
1586272275.9,286046997.1,N
1586272295.7,286046997.1,N
1586272315.6,286046997.9,N
1586272335.4,286046997.5,N
1586272355.2,286046995.6,Y
1586272375.1,286046998.0,P
1586272376.0,286046998.0,P
1586272395.8,286046997.6,P
1586272415.7,286046997.8,Y
1586272435.5,286047001.2,P
1586272455.3,286046998.5,N
1586272475.2,286046998.4,N
1586272495.0,286047000.9,N
1586272495.9,286047000.9,N
1586272515.7,286046999.2,N
1586272535.6,286046995.3,Y
1586272555.4,286046997.9,P
1586272575.3,286046997.3,P
1586272595.1,286046996.6,P
1586272615.8,286046999.6,N
1586272635.7,286046999.6,N
1586272655.5,286046995.1,Y
1586272675.4,286046999.5,P
1586272695.2,286046998.5,N
1586272715.0,286046998.7,N
1586272715.9,286046998.7,Y
1586272735.8,286047000.9,P
1586272755.6,286047000.3,N
1586272775.5,286046998.2,N
1586272795.3,286046999.4,N
1586272815.1,286047001.1,N
1586272835.9,286046999.2,N
1586272855.7,286046998.8,N
1586272875.5,286046999.5,N
1586272895.4,286047000.9,N
1586272915.2,286046998.2,N
1586272935.1,286047000.6,N
1586272936.0,286047000.6,N
1586272955.8,286046998.2,N
1586272975.6,286046998.1,N
1586272995.5,286046999.3,N
1586273015.3,286046998.7,N
1586273035.2,286046998.1,N
1586273055.9,286047000.9,N
1586273075.7,286047002.8,N
1586273095.6,286047000.5,N
1586273115.4,286047000.8,N
1586273135.2,286047001.1,N
1586273155.1,286047000.0,N
1586273156.0,286047000.0,N
1586273175.8,286046999.3,N
1586273195.7,286046999.3,N
1586273215.5,286046996.5,Y
1586273235.3,286047000.8,P
1586273255.2,286047000.6,N
1586273275.0,286046999.9,N
1586273275.9,286046999.9,N
1586273295.8,286047000.5,N
1586273315.6,286047000.0,N
1586273335.4,286047000.4,N
1586273355.3,286047002.5,Y
1586273375.1,286047002.0,P
1586273395.9,286047003.9,P
1586273415.7,286047003.5,N
1586273435.5,286047003.7,N
1586273455.4,286047001.4,N
1586273475.2,286047002.7,N
1586273495.0,286047002.2,N
1586273495.9,286047002.2,N
1586273515.8,286047004.3,Y
1586273535.6,286047000.2,P
1586273555.5,286047000.9,N
1586273575.3,286047002.0,N
1586273595.1,286047003.4,Y
1586273615.9,286047000.0,P
1586273635.7,286047001.8,N
1586273655.6,286047003.1,P
1586273675.4,286047002.4,N
1586273695.2,286047000.6,N
1586273715.1,286047000.4,N
1586273716.0,286047000.4,N
1586273735.8,286047001.1,N
1586273755.6,286046998.8,N
1586273775.5,286047001.0,N
1586273795.3,286047001.1,N
1586273815.2,286046999.4,N
1586273835.9,286047000.0,N
1586273855.7,286047000.6,N
1586273875.6,286047000.0,N
1586273895.4,286047002.6,N
1586273915.3,286047003.9,Y
1586273935.1,286047002.7,P
1586273936.0,286047002.7,N
1586273955.8,286047002.7,P
1586273975.7,286047002.7,Y
1586273995.5,286046998.5,P
1586274015.3,286047000.5,N
1586274035.2,286047000.7,N
1586274055.0,286047000.0,N
1586274055.9,286047000.0,N
1586274075.8,286047000.7,N
1586274095.6,286046999.4,N
1586274115.4,286046999.5,N
1586274135.3,286046997.3,N
1586274155.1,286046998.9,N
1586274175.9,286047000.3,N
1586274195.7,286046999.7,N
1586274215.5,286047002.1,N
1586274235.4,286047001.3,N
1586274255.2,286047003.5,N
1586274275.0,286047003.9,N
1586274275.9,286047003.9,N
1586274295.8,286047004.4,N
1586274315.6,286047002.1,N
1586274335.5,286047000.3,N
1586274355.3,286047000.0,N
1586274375.1,286047000.2,N
1586274395.9,286047000.7,N
1586274415.7,286047000.7,N
1586274435.6,286047000.0,N
1586274455.4,286046999.8,N
1586274475.2,286046999.9,N
1586274495.1,286047000.2,N
1586274496.0,286047000.2,N
1586274515.8,286046998.3,N
1586274535.6,286047002.3,N
1586274555.5,286047006.0,Y
1586274575.3,286047001.4,P
1586274595.2,286047004.4,P
1586274615.9,286047002.3,N
1586274635.7,286047002.4,N
1586274655.6,286047000.2,N
1586274675.4,286047000.4,N
1586274695.3,286047002.3,N
1586274715.1,286047000.0,N
1586274716.0,286047000.0,N
1586274735.8,286047002.7,N
1586274755.7,286047001.6,N
1586274775.5,286047004.1,Y
1586274795.3,286047002.8,P
1586274815.2,286046998.6,N
1586274835.0,286046998.5,N
1586274835.9,286046998.5,N
1586274855.8,286047001.1,N
1586274875.6,286046998.4,N
1586274895.4,286046999.4,N
1586274915.3,286046996.9,N
1586274935.1,286047002.8,N
1586274955.9,286047002.6,N
1586274975.7,286047002.6,N
1586274995.5,286047004.0,N
1586275015.4,286047003.8,N
1586275035.2,286047005.3,N
1586275055.0,286047005.9,N
1586275055.9,286047005.9,N
1586275075.8,286047001.8,N
1586275095.6,286047002.2,N
1586275115.5,286047003.5,N
1586275135.3,286046999.9,N
1586275155.1,286047002.2,N
1586275175.9,286047002.3,N
1586275195.7,286047000.2,N
